Blythe, CA

6:18 AM PDT on April 23, 2017 (GMT -0700)
Blythe

Weather History for KBLH - August, 2013

Change the Weather History Date:

Saturday, August 3, 2013

  Actual Average Record
Temperature  
Mean Temperature 92 °F -  
Max Temperature 108 °F 106 °F 117 °F (1995)
Min Temperature 77 °F 80 °F 70 °F (1976)
Cooling Degree Days 27    
Growing Degree Days 42 (Base 50)    
Moisture  
Dew Point 46 °F    
Average Humidity 21    
Maximum Humidity 40    
Minimum Humidity 10    
Precipitation  
Precipitation 0.00 in - - ()
Sea Level Pressure  
Sea Level Pressure 29.78 in    
Wind  
Wind Speed 8 mph (SSW)    
Max Wind Speed 17 mph    
Max Gust Speed 24 mph    
Visibility 10 miles    
Events      
Averages and records for this station are not official NWS values.
T = Trace of Precipitation, MM = Missing Value Source: NWS Daily Summary

Daily Weather History Graph

Daily Weather History Graph

Search for Another Location

Airport or City:

Trip Planner

Search our weather history database for the weather conditions in past years. The results will help you decide how hot, cold, wet, or windy it might be!

Date:

Astronomy

Aug. 03, 2013 Rise Set
Actual Time 5:52 AM PDT 7:36 PM PDT
Civil Twilight 5:25 AM PDT 8:03 PM PDT
Nautical Twilight 4:52 AM PDT 8:36 PM PDT
Astronomical Twilight 4:18 AM PDT 9:10 PM PDT
Moon 3:07 AM PDT (8/3) 5:20 PM PDT (8/3)
Length of Visible Light 14h 38m
Length of Day
13h 44m
Waning Crescent, 9% of the Moon is Illuminated
Aug 3
Waning Crescent
Aug 6
New
Aug 14
First Quarter
Aug 20
Full
Aug 28
Last Quarter

Hourly Weather History & Observations

Time (PDT) Temp. Dew Point Humidity Pressure Visibility Wind Dir Wind Speed Gust Speed Precip Events Conditions
12:52 AM 86.0 °F 48.0 °F 27% 29.76 in 10.0 mi South 9.2 mph - N/A   Clear
1:52 AM 86.0 °F 48.9 °F 28% 29.76 in 10.0 mi South 11.5 mph - N/A   Clear
2:52 AM 82.9 °F 50.0 °F 32% 29.76 in 10.0 mi South 12.7 mph - N/A   Clear
3:52 AM 81.0 °F 51.1 °F 35% 29.76 in 10.0 mi South 8.1 mph - N/A   Clear
4:52 AM 77.0 °F 51.1 °F 40% 29.78 in 10.0 mi East 5.8 mph - N/A   Clear
5:52 AM 77.0 °F 50.0 °F 39% 29.81 in 10.0 mi NNW 3.5 mph - N/A   Clear
6:52 AM 79.0 °F 50.0 °F 36% 29.83 in 10.0 mi NW 4.6 mph - N/A   Clear
7:52 AM 82.9 °F 48.9 °F 31% 29.84 in 10.0 mi NNW 4.6 mph - N/A   Clear
8:52 AM 89.1 °F 51.1 °F 27% 29.86 in 10.0 mi Calm Calm - N/A   Clear
9:52 AM 93.0 °F 46.0 °F 20% 29.86 in 10.0 mi South 5.8 mph - N/A   Clear
10:52 AM 97.0 °F 37.0 °F 12% 29.85 in 10.0 mi SE 5.8 mph - N/A   Clear
11:52 AM 100.0 °F 42.1 °F 14% 29.83 in 10.0 mi SSW 8.1 mph - N/A   Clear
12:52 PM 104.0 °F 37.0 °F 10% 29.82 in 10.0 mi South 10.4 mph - N/A   Clear
1:52 PM 105.1 °F 41.0 °F 11% 29.80 in 10.0 mi SSW 6.9 mph 18.4 mph N/A   Clear
2:52 PM 106.0 °F 42.1 °F 11% 29.77 in 10.0 mi South 17.3 mph 23.0 mph N/A   Clear
3:52 PM 107.1 °F 42.1 °F 11% 29.75 in 10.0 mi South 13.8 mph 24.2 mph N/A   Clear
4:52 PM 107.1 °F 44.1 °F 12% 29.73 in 10.0 mi South 11.5 mph 18.4 mph N/A   Clear
5:52 PM 106.0 °F 44.1 °F 12% 29.71 in 10.0 mi SSW 9.2 mph - N/A   Clear
6:52 PM 105.1 °F 44.1 °F 13% 29.71 in 10.0 mi South 10.4 mph - N/A   Clear
7:52 PM 102.0 °F 46.9 °F 16% 29.72 in 10.0 mi SSW 9.2 mph - N/A   Clear
8:52 PM 100.0 °F 45.0 °F 15% 29.73 in 10.0 mi WSW 8.1 mph - N/A   Clear
9:52 PM 98.1 °F 46.0 °F 17% 29.76 in 10.0 mi SW 9.2 mph - N/A   Clear
10:52 PM 93.9 °F 50.0 °F 22% 29.76 in 10.0 mi South 5.8 mph - N/A   Clear
11:52 PM 91.0 °F 46.0 °F 21% 29.76 in 10.0 mi SSW 3.5 mph - N/A   Clear